Погода в Ветлянке

Россия / Астраханская область     47°38′12″N   46°37′42″E
темп.,
°C
ветер,
м/с
пор.,
м/с
влажн.,
%
обл.,
%
осадки,
мм/ч
давл.,
гПа
погр.,
м
27 сентября, пн
пн2701:00+12з814725 0.1 1007588
04:00+11з814755 0.1 1007685
07:00+10з814785 0.0 1008575
10:00+13зсз1012659 0.0 10081035
13:00+14зсз11136091 0.1 10091388
16:00+13зсз91270100 0.2 1010953
19:00+13зсз7127292 0.0 1012781
22:00+11зсз5108010 0.1 1013293
28 сентября, вт
вт2801:00+10зсз49895 0.0 1014208
04:00+9сз46945 0.0 1015130
07:00+8ссз35935 0.0 1016109
10:00+13с457019 0.0 1017670
13:00+14с4462100 0.1 1018832
16:00+15ссв4544100 0.1 10191375
19:00+13ссв6852100 0.0 1021545
22:00+11ссв6756100 0.0 1022666
29 сентября, ср
ср2901:00+10ссв5652100 0.0 1023781
04:00+9ссв5757100 0.0 1024951
07:00+7ссв47625 0.0 1025348
10:00+10ссв67485 0.0 10261336
13:00+13св5637100 0.0 10262008
16:00+13ссв5534100 0.0 10262029
19:00+10ссв354089 0.0 1027110
22:00+8ссв494724 0.0 1028221
30 сентября, чт
чт3001:00+7св46515 0.0 1028115
04:00+6св34575 0.0 102969
07:00+5св47605 0.0 1030135
10:00+10св56391 0.0 1031925
13:00+12св55315 0.0 10311761
16:00+13св55305 0.0 10311930
19:00+10ссв34395 0.0 103153
22:00+8ссв45455 0.0 103282
1 октября, пт
пт101:00+7ссв44500 0.0 103263
04:00+6св45531 0.0 103373
07:00+5св34561 0.0 103457
10:00+11св45380 0.0 1034610
13:00+13св33305 0.0 10341800
16:00+14ссв33274 0.0 10331904
19:00+10св33350 0.0 103421
22:00+8всв33410 0.0 103517